sat.trackr.live / text

‹ back to catalog

STARLINK-31684

NORAD 59492 · 2024-071J

PAYLOAD ACTIVE UNKNOWN

§ Identity

Operator
Country
US
Launch date
2024-04-13
Launch site
AFETR
Launch vehicle
Mass (kg)
RCS (m²)

Purposes: comms

External: N2YO · Heavens-Above · Gunter

§ Orbital elements

Epoch: 2026-05-24T20:08:08.525184Z

Period
94.26 min
Inclination
42.9973°
Eccentricity
0.0001353
Mean motion
15.27612017 rev/d
Perigee alt
482.0 km
Apogee alt
483.9 km
Semi-major
6,861.1 km
B*
2.3756e-4
RAAN
277.3153°
Arg perigee
293.0959°
Mean anomaly
66.9750°
Rev number
11,976

§ Raw data

STARLINK-316841 59492U 24071J   26144.83898756  .00006287  00000+0  23756-3 0  99922 59492  42.9973 277.3153 0001353 293.0959  66.9750 15.27612017119761

JSON: /api/v1/satellites/59492 · /tle

For live sub-satellite position, see the globe view (requires WebGL).

§ Visibility from observer

Set your observer location to see the next 7 days of passes ≥ 10°. The values pass through the URL so the page stays shareable.

No JS? Fill the form by hand. The geolocation button needs JavaScript.